Tracking 19846 objects as of 18-Sep-2019
HD Live streaming from Space Station
objects crossing your sky now

IRIDIUM 42

Track IRIDIUM 42 now!
10-day predictions
IRIDIUM 42 is classified as:


NORAD ID: 25077
Int'l Code: 1997-077A
Perigee: 781.8 km
Apogee: 785.5 km
Inclination: 86.4 °
Period: 100.4 minutes
Semi major axis: 7154 km
RCS: 3.3675 m2 (large)
Launch date: December 8, 1997
Source: United States (US)
Launch site: Taiyaun Space Center, China (TSC)
aabbcc
Your satellite tracking list
Your tracking list is empty




NASA's NSSDC Master Catalog

Two Line Element Set (TLE):
1 25077U 97077A   19261.48688603  .00000058  00000-0  13700-4 0  9991
2 25077  86.3984  37.6534 0002594  99.5656 260.5834 14.34564182140213
Source of the keplerian elements: AFSPC